Date String (YYYY-MM-DD hh:mm:ss) UTC,Instrument flags,Ambient pressure (hPa),Sample flow (lpm),Bypass flow (lpm),Sample temperature (°C),Ambient temperature (°C),ASC tube jacket temperature (°C),LED temperature (°C),Box temperature (°C),Sample RH (%),Span deviation,Mass concentration (μg/m³),Mass concentration (μg/m³),Mass concentration (μg/m³)
DateTimeUTC,F1_M11,P_M11,Q1_M11,Q2_M11,T1_M11,T2_M11,T3_M11,T4_M11,T5_M11,U1_M11,ZSPAN_M11,X0_M11,X2_M11,X1_M11
2022-05-20 11:00:00,,0816.6,5.00,0.00,25.6,24.2,00.0,34.7,27.3,19.8,0000.0,0003.99,0003.24,0002.90
2022-05-20 11:01:00,,0816.8,5.00,0.00,25.5,24.2,00.0,34.7,27.3,19.8,0000.0,0004.07,0003.24,0002.88
2022-05-20 11:02:00,,0817.0,5.00,0.00,25.5,24.2,00.0,34.7,27.3,19.9,0000.0,0004.25,0003.25,0002.88
2022-05-20 11:03:00,,0816.9,4.99,0.00,25.5,24.2,00.0,34.7,27.3,19.9,0000.0,0004.20,0003.23,0002.87
2022-05-20 11:04:00,,0816.9,5.01,0.00,25.5,24.2,00.0,34.6,27.3,19.9,0000.0,0004.14,0003.21,0002.85
2022-05-20 11:05:00,,0816.8,5.01,0.00,25.5,24.2,00.0,34.6,27.3,19.9,0000.0,0003.98,0003.17,0002.82
2022-05-20 11:06:00,,0816.6,4.99,0.00,25.5,24.2,00.0,34.6,27.3,20.0,0000.0,0003.96,0003.15,0002.79
2022-05-20 11:07:00,,0816.6,5.01,0.00,25.5,24.2,00.0,34.6,27.2,20.0,0000.0,0004.07,0003.14,0002.79
2022-05-20 11:08:00,,0816.6,5.01,0.00,25.4,24.1,00.0,34.6,27.2,20.0,0000.0,0004.08,0003.13,0002.79
2022-05-20 11:09:00,,0816.6,4.99,0.00,25.4,24.1,00.0,34.6,27.2,20.0,0000.0,0004.18,0003.15,0002.82
2022-05-20 11:10:00,,0816.9,5.00,0.00,25.4,24.1,00.0,34.5,27.2,20.0,0000.0,0004.16,0003.16,0002.83
2022-05-20 11:11:00,,0816.4,5.00,0.00,25.4,24.1,00.0,34.5,27.2,20.0,0000.0,0004.22,0003.17,0002.85
2022-05-20 11:12:00,,0816.4,5.00,0.00,25.4,24.1,00.0,34.5,27.2,20.0,0000.0,0004.35,0003.19,0002.87
2022-05-20 11:13:00,,0816.4,4.99,0.00,25.4,24.1,00.0,34.5,27.2,20.0,0000.0,0004.33,0003.19,0002.88
2022-05-20 11:14:00,,0816.3,5.01,0.00,25.4,24.1,00.0,34.5,27.2,20.0,0000.0,0004.34,0003.19,0002.85
2022-05-20 11:15:00,,0816.3,4.99,0.00,25.4,24.1,00.0,34.5,27.1,20.0,0000.0,0005.13,0003.21,0002.84
2022-05-20 11:16:00,,0816.3,5.00,0.00,25.3,24.1,00.0,34.4,27.1,20.0,0000.0,0005.55,0003.22,0002.83
2022-05-20 11:17:00,,0816.4,5.00,0.00,25.3,24.1,00.0,34.4,27.1,20.0,0000.0,0005.66,0003.23,0002.82
2022-05-20 11:18:00,,0816.5,5.00,0.00,25.3,24.0,00.0,34.4,27.1,20.0,0000.0,0005.68,0003.24,0002.82
2022-05-20 11:19:00,,0816.5,4.99,0.00,25.3,24.0,00.0,34.4,27.1,20.0,0000.0,0005.72,0003.23,0002.80
2022-05-20 11:20:00,,0816.5,4.99,0.00,25.3,24.0,00.0,34.4,27.1,20.0,0000.0,0005.60,0003.20,0002.78
2022-05-20 11:21:00,,0816.5,5.01,0.00,25.3,24.0,00.0,34.4,27.0,20.0,0000.0,0005.57,0003.18,0002.78
2022-05-20 11:22:00,,0816.5,4.99,0.00,25.2,23.9,00.0,34.4,27.0,20.1,0000.0,0005.56,0003.17,0002.77
2022-05-20 11:23:00,,0816.4,5.00,0.00,25.2,23.9,00.0,34.3,27.0,20.1,0000.0,0005.38,0003.14,0002.75
2022-05-20 11:24:00,,0816.5,5.00,0.00,25.2,23.9,00.0,34.3,26.9,20.1,0000.0,0005.19,0003.13,0002.73
2022-05-20 11:25:00,,0816.5,5.00,0.00,25.2,23.9,00.0,34.3,26.9,20.1,0000.0,0005.33,0003.13,0002.73
2022-05-20 11:26:00,,0816.5,5.00,0.00,25.1,23.8,00.0,34.3,26.9,20.2,0000.0,0005.04,0003.12,0002.74
2022-05-20 11:27:00,,0816.7,5.01,0.00,25.1,23.8,00.0,34.3,26.9,20.2,0000.0,0004.76,0003.12,0002.74
2022-05-20 11:28:00,,0816.7,4.99,0.00,25.1,23.8,00.0,34.2,26.9,20.2,0000.0,0004.61,0003.11,0002.74
2022-05-20 11:29:00,,0817.1,5.01,0.00,25.1,23.8,00.0,34.2,26.9,20.2,0000.0,0004.68,0003.12,0002.74
2022-05-20 11:30:00,,0816.9,5.00,0.00,25.1,23.8,00.0,34.2,26.8,20.3,0000.0,0004.77,0003.12,0002.76
2022-05-20 11:31:00,,0817.1,4.99,0.00,25.1,23.8,00.0,34.2,26.8,20.3,0000.0,0004.90,0003.15,0002.76
2022-05-20 11:32:00,,0817.2,5.01,0.00,25.0,23.8,00.0,34.2,26.8,20.3,0000.0,0004.98,0003.16,0002.76
2022-05-20 11:33:00,,0817.3,4.99,0.00,25.0,23.8,00.0,34.2,26.8,20.3,0000.0,0005.13,0003.20,0002.75
2022-05-20 11:34:00,,0817.4,5.00,0.00,25.0,23.7,00.0,34.1,26.8,20.3,0000.0,0005.19,0003.20,0002.74
2022-05-20 11:35:00,,0817.5,4.99,0.00,25.0,23.7,00.0,34.1,26.8,20.3,0000.0,0005.15,0003.19,0002.73
2022-05-20 11:36:00,,0817.5,5.00,0.00,25.0,23.7,00.0,34.1,26.7,20.2,0000.0,0005.26,0003.20,0002.73
2022-05-20 11:37:00,,0817.5,5.00,0.00,25.0,23.7,00.0,34.1,26.7,20.2,0000.0,0005.56,0003.21,0002.71
2022-05-20 11:38:00,,0817.5,5.00,0.00,25.0,23.7,00.0,34.1,26.7,20.2,0000.0,0006.04,0003.22,0002.70
2022-05-20 11:39:00,,0817.5,5.00,0.00,25.0,23.7,00.0,34.1,26.7,20.2,0000.0,0006.02,0003.21,0002.69
2022-05-20 11:40:00,,0817.4,4.99,0.00,25.0,23.7,00.0,34.1,26.7,20.2,0000.0,0005.85,0003.20,0002.68
2022-05-20 11:41:00,,0817.4,5.01,0.00,25.0,23.7,00.0,34.0,26.7,20.1,0000.0,0005.66,0003.19,0002.68
2022-05-20 11:42:00,,0817.4,4.99,0.00,24.9,23.7,00.0,34.0,26.7,20.1,0000.0,0005.51,0003.17,0002.67
2022-05-20 11:43:00,,0817.4,5.00,0.00,24.9,23.7,00.0,34.0,26.7,20.1,0000.0,0005.45,0003.15,0002.65
2022-05-20 11:44:00,,0817.3,5.00,0.00,24.9,23.7,00.0,34.0,26.7,20.2,0000.0,0005.35,0003.11,0002.63
2022-05-20 11:45:00,,0817.3,5.01,0.00,24.9,23.6,00.0,34.0,26.7,20.2,0000.0,0005.27,0003.09,0002.63
2022-05-20 11:46:00,,0817.3,4.98,0.00,24.9,23.6,00.0,34.0,26.6,20.2,0000.0,0005.38,0003.08,0002.62
2022-05-20 11:47:00,,0817.2,5.01,0.00,24.8,23.6,00.0,34.0,26.6,20.3,0000.0,0005.23,0003.04,0002.61
2022-05-20 11:48:00,,0817.3,4.99,0.00,24.8,23.5,00.0,34.0,26.6,20.3,0000.0,0004.32,0002.98,0002.60
2022-05-20 11:49:00,,0817.4,5.01,0.00,24.8,23.5,00.0,33.9,26.5,20.3,0000.0,0003.76,0002.96,0002.59
2022-05-20 11:50:00,,0817.4,5.00,0.00,24.8,23.5,00.0,33.9,26.5,20.4,0000.0,0003.82,0002.99,0002.58
2022-05-20 11:51:00,,0817.5,5.00,0.00,24.7,23.4,00.0,33.9,26.5,20.4,0000.0,0003.80,0002.98,0002.57
2022-05-20 11:52:00,,0817.5,5.01,0.00,24.7,23.4,00.0,33.9,26.5,20.5,0000.0,0003.82,0002.98,0002.55
2022-05-20 11:53:00,,0817.4,4.99,0.00,24.7,23.4,00.0,33.9,26.5,20.5,0000.0,0003.86,0002.99,0002.55
2022-05-20 11:54:00,,0817.3,5.00,0.00,24.7,23.3,00.0,33.8,26.4,20.6,0000.0,0003.97,0003.00,0002.54
2022-05-20 11:55:00,,0817.1,5.00,0.00,24.6,23.3,00.0,33.8,26.4,20.6,0000.0,0003.86,0003.01,0002.55
2022-05-20 11:56:00,,0817.1,4.99,0.00,24.6,23.3,00.0,33.8,26.4,20.7,0000.0,0003.87,0003.02,0002.55
2022-05-20 11:57:00,,0817.1,5.00,0.00,24.6,23.3,00.0,33.8,26.4,20.7,0000.0,0003.79,0003.03,0002.55
2022-05-20 11:58:00,,0817.1,5.00,0.00,24.6,23.3,00.0,33.8,26.4,22.3,0000.0,0003.71,0003.02,0002.54
2022-05-20 11:59:00,,0817.2,4.99,0.00,24.6,23.3,00.0,33.7,26.4,23.0,0000.0,0003.70,0003.01,0002.54
